Location: Katzenstein
(51.7484°N, 10.2155°E)
Time: 09:08:42
(UTC+00:00)

STARLINK-1141 - Pass Details

Date: 17 February 2020
Orbit: 548 x 551 km, 53.0° (Epoch: 28 March)

Event Time Altitude Azimuth Distance (km) Brightness Sun altitude
Exits shadow 03:54:07 66° 62° (ENE) 606 3.9 -24.8°
Drops below altitude 10° 03:57:45 10° 77° (ENE) 1,835 7.4 -24.2°
Enters shadow 04:54:11 -70° 270° (W) 12,550 10.4 -15.6°
Maximum altitude 05:33:21 80° 9° (N) 568 3.7 -9.5°
